カタログに戻る

COSMOS 2080

GLONASS

運用中ナビゲーションMEO
NORAD 20620·PAYLOAD·🇷🇺 Russia

打ち上げ May 19, 1990 から Baikonur Cosmodrome

Loading…

次のパス (今後24時間)

TLE

最新Source: Space-Track

元期: Sep 14, 2026, 12:42 UTC

1 20620U 90045B   26257.52920205 -.00000044  00000-0  00000+0 0  9993
2 20620  64.6463 305.2459 0023094  26.7594 334.9612  2.13103078282511

AllMySatでCOSMOS 2080をリアルタイム追跡

Download on the App Store